Regional Weather Roundup
Issued by NWS

Home | Current Version | Previous Version | Text Only | Print | Product List | Glossary Off
Versions: 1 2 3 4 5 6 7 8 9 10 11 12 13 14 15 16 17 18 19 20 21 22 23 24 25 26 27 28 29 30 31 32 33 34 35 36 37 38 39 40 41 42 43 44 45 46 47 48 49 50

000
ASUS43 KFSD 241402
RWRSD

WEATHER ROUNDUP FOR SOUTH DAKOTA
NATIONAL WEATHER SERVICE SIOUX FALLS SD
900 AM CDT FRI APR 24 2015

NOTE: "FAIR" INDICATES FEW OR NO CLOUDS BELOW 12,000 FEET WITH NO
SIGNIFICANT WEATHER AND/OR OBSTRUCTIONS TO VISIBILITY.


SDZ001>005-009-010-012>017-241500-
NORTHWEST AND NORTH CENTRAL SOUTH DAKOTA

CITY           SKY/WX    TMP DP  RH WIND       PRES   REMARKS
BUFFALO          N/A     45  35  68 CALM      29.58R
FAITH            N/A     43  34  70 N12       29.60F
MOBRIDGE       MOSUNNY   50  37  61 NE6       29.58R
$$

SDZ012>016-024>037-041>051-057-063-072>074-241500-
SOUTHWEST AND SOUTH CENTRAL SOUTH DAKOTA

CITY           SKY/WX    TMP DP  RH WIND       PRES   REMARKS
RAPID CTY ARPT PTSUNNY   53  43  68 N9        29.61R
PIERRE         PTSUNNY   56  45  66 W8        29.54F
CUSTER         MOSUNNY   48  35  60 NE3       29.66S
ELLSWORTH AFB  PTSUNNY   54  40  60 N14       29.62R
PHILIP         PTSUNNY   53  43  68 NW9       29.58S
PINE RIDGE     MOSUNNY   51  40  65 W5        29.63S
WINNER         FAIR      58  45  62 SW15      29.58F
$$

SDZ004>011-016>023-039-040-241500-
NORTHEAST SOUTH DAKOTA

CITY           SKY/WX    TMP DP  RH WIND       PRES   REMARKS
ABERDEEN       PTSUNNY   53  42  66 SE7       29.62F
WATERTOWN      PTSUNNY   51  39  63 SE14G23   29.68S
BROOKINGS      MOSUNNY   50  39  66 S21G26    29.70S
SISSETON         N/A     43  38  82 S10       29.71F
$$

SDZ017-020-022-023-036>040-048>070-241500-
SOUTHEAST SOUTH DAKOTA

CITY           SKY/WX    TMP DP  RH WIND       PRES   REMARKS
SIOUX FALLS    CLOUDY    51  41  68 SE14      29.72R
HURON          MOSUNNY   55  40  56 SE15      29.61S
MITCHELL       PTSUNNY   54  41  61 S20G28    29.64S
YANKTON        CLOUDY    54  41  62 S18       29.69F
$$

ABBREVIATIONS USED IN REMARKS
   TC - TEMPERATURE IN CELSIUS
  WCI - WIND CHILL INDEX
   HX - HEAT INDEX
  VSB - VISIBILITY




USA.gov is the U.S. government's official web portal to all federal, state and local government web resources and services.